Location: Mountain Grove
(34.0887°N, 86.6172°W)
Time: 21:15:57
(UTC+00:00)

Resurs 01 Rocket - Pass Details

Date: 14 July 2020
Orbit: 635 x 644 km, 98.0° (Epoch: 08 August)

Event Time Altitude Azimuth Distance (km) Brightness Sun altitude
Exits shadow 03:08:51 18° 215° (SW) 1,568 3.5 -22.1°
Maximum altitude 03:11:16 29° 263° (W) 1,169 3.2 -22.4°
Drops below altitude 10° 03:15:06 10° 323° (NW) 2,024 5.3 -22.9°
Sets 03:17:34 0° 335° (NNW) 2,936 6.3 -23.2°
